Location: Eastlake (historical)
(39.0077°N, 122.6678°W)
Time: 21:28:33
(UTC+00:00)

ALOS - Visible Passes

Search period start: 16 April 2021 00:00
Search period end: 26 April 2021 00:00
Orbit: 683 x 684 km, 97.9° (Epoch: 16 April)

Date Brightness Start Highest point End Pass type
(mag) Time Alt. Az. Time Alt. Az. Time Alt. Az.
16 Apr 4.8 11:22:13 10° NE 11:25:20 18° E 11:28:26 10° SE visible
16 Apr 2.7 12:58:30 10° N 13:02:54 43° WNW 13:07:18 10° SW visible
17 Apr 3.4 11:58:10 10° NNE 12:02:37 43° E 12:07:02 10° S visible
18 Apr 2.2 12:35:03 10° N 12:39:43 76° WNW 12:44:22 10° SSW visible
19 Apr 4.4 11:35:24 10° NE 11:39:14 25° E 11:43:02 10° SSE visible
20 Apr 2.8 12:11:49 10° NNE 12:16:27 61° E 12:21:02 10° S visible
21 Apr 5.0 11:13:18 10° ENE 11:15:46 14° E 11:18:13 10° ESE visible
21 Apr 2.5 12:48:55 10° N 12:53:28 53° WNW 12:57:59 10° SSW visible
22 Apr 3.8 11:48:50 10° NNE 11:53:06 34° E 11:57:20 10° SSE visible
23 Apr 2.3 12:25:33 10° NNE 12:30:14 87° E 12:34:54 10° SSW visible
24 Apr 4.7 11:26:15 10° NE 11:29:41 20° E 11:33:05 10° SE visible
25 Apr 3.2 12:02:24 10° NNE 12:06:56 49° E 12:11:26 10° S visible
